Regional Weather Roundup
Issued by NWS Jackson, KY

Home | Current Version | Previous Version | Text Only | Print | Product List | Glossary Off
Versions: 1 2 3 4 5 6 7 8 9 10 11 12 13 14 15 16 17 18 19 20 21 22 23 24 25 26 27 28 29 30 31 32 33 34 35 36 37 38 39 40 41 42 43 44 45 46 47 48 49 50

000
ASUS43 KJKL 270910
RWRJKL

EAST KENTUCKY HOURLY WEATHER ROUNDUP
NATIONAL WEATHER SERVICE JACKSON KY
400 AM EST SAT DEC 27 2014

NOTE: "FAIR" INDICATES FEW OR NO CLOUDS BELOW 12,000 FEET WITH
NO SIGNIFICANT WEATHER AND/OR OBSTRUCTIONS TO VISIBILITY.

* THESE REPORTS ARE NOT UNDER NWS QUALITY CONTROL AND MAY NOT
  REPORT WEATHER SUCH AS PRECIPITATION AND FOG.

KYZ079-080-083-085-087-088-110-112-115-119-120-271000
...EASTERN KENTUCKY...

CITY           SKY/WX    TMP DP  RH WIND       PRES   REMARKS
JACKSON        CLOUDY    45  27  49 CALM      30.24S
LONDON         CLOUDY    44  32  62 CALM      30.26R
SOMERSET*      CLOUDY    43  32  65 CALM      30.27R
MONTICELLO*    CLOUDY    44  40  86 CALM      30.27S
MIDDLESBORO*   CLOUDY    42  36  79 CALM      30.27R
HARLAN APT*    CLOUDY    41  32  70 CALM      30.27R
HAZARD APT*    CLOUDY    43  32  65 CALM      30.25
BLACK MTN*       N/A     46   7  19 S6          N/A
PIKEVILLE APT* CLOUDY    46  25  42 CALM      30.25F
BIG SANDY*     CLOUDY    43  31  62 CALM      30.24F
MOREHEAD APT*  CLOUDY    45  34  65 SE3       30.25R
$$

KYZ035-036-041-042-044-050-067-078-099-271000
...CENTRAL KENTUCKY...

CITY           SKY/WX    TMP DP  RH WIND       PRES   REMARKS
MT STERLING*   CLOUDY    45  34  65 SW5       30.24S
FLEMING/MASON* PTCLDY    43  34  70 S6        30.23S
DANVILLE*      MOCLDY    45  32  61 S6        30.23F
RICHMOND*      CLOUDY    46  30  53 CALM      30.22S
LEXINGTON      CLOUDY    45  34  65 S5        30.22S
FRANKFORT      CLOUDY    46  34  62 S5        30.20S
$$

KYZ091>093-OHZ055-061-077-WVZ005-015-034-035-042-271000
...SOUTHERN OHIO/WEST VIRGINIA...

CITY           SKY/WX    TMP DP  RH WIND       PRES   REMARKS
COVINGTON      PTCLDY    36  30  79 S6        30.19S WCI  31
COLUMBUS       CLOUDY    37  33  85 SE3       30.20S
DAYTON         CLOUDY    46  34  62 S10       30.16F
WILMINGTON     PTCLDY    40  32  73 S7        30.19F
HUNTINGTON     CLOUDY    42  33  70 CALM      30.22F
CHARLESTON     CLOUDY    38  33  82 CALM      30.24F
PINEVILLE*     CLOUDY    38  36  94 MISG      30.30F
BECKLEY        CLOUDY    39  27  62 CALM      30.25S
BLUEFIELD      MOCLDY    42  19  39 N5        30.26R
$$

VAZ002-007-008-TNZ017-027-036-066-071-271000
...SOUTHWEST VIRGINIA/EAST TENNESSEE...

CITY           SKY/WX    TMP DP  RH WIND       PRES   REMARKS
WISE*          CLOUDY    45  19  36 S5        30.24F
ABINGDON*      CLOUDY    43  30  60 CALM      30.26S
BRISTOL        CLOUDY    39  34  82 CALM      30.27F
KNOXVILLE      MOCLDY    39  34  82 CALM      30.28S
OAK RIDGE      MOCLDY    39  36  89 CALM      30.29S
CROSSVILLE     CLOUDY    48  33  56 S5        30.25R
NASHVILLE      CLOUDY    49  38  65 SE8       30.20F
$$

...KEY TO REMARKS...
VSB - VISIBILITY IN MILES
WCI - WIND CHILL INDEX
HX  - HEAT INDEX

$$


USA.gov is the U.S. government's official web portal to all federal, state and local government web resources and services.